West Palm Beach, FL

1:08 PM EST on February 22, 2017 (GMT -0500)
Palm Beach International

Weather History for KPBI - November, 2011

Change the Weather History Date:

Wednesday, November 16, 2011

  Actual Average Record
Temperature  
Mean Temperature 80 °F 73 °F  
Max Temperature 84 °F 80 °F 88 °F (1980)
Min Temperature 76 °F 65 °F 40 °F (1940)
Degree Days  
Heating Degree Days 0 0  
Month to date heating degree days 0 0  
Since 1 July heating degree days 0 1  
Cooling Degree Days 15 8  
Month to date cooling degree days 145 145  
Year to date cooling degree days 4434 3766  
Growing Degree Days 28 (Base 50)    
Moisture  
Dew Point 73 °F    
Average Humidity 82    
Maximum Humidity 94    
Minimum Humidity 69    
Precipitation  
Precipitation 0.00 in 0.17 in 3.89 in (1994)
Month to date precipitation 0.27 2.84  
Year to date precipitation 45.93 57.04  
Snow  
Snow 0.00 in - - ()
Month to date snowfall 0.0  
Since 1 July snowfall 0.0  
Since 1 September snowfall 0.0  
Snow Depth 0.00 in    
Sea Level Pressure  
Sea Level Pressure 30.02 in    
Wind  
Wind Speed 10 mph (SE)    
Max Wind Speed 17 mph    
Max Gust Speed 22 mph    
Visibility 10 miles    
Events      
T = Trace of Precipitation, MM = Missing Value Source: NWS Daily Summary

Daily Weather History Graph

Daily Weather History Graph

Search for Another Location

Airport or City:

Trip Planner

Search our weather history database for the weather conditions in past years. The results will help you decide how hot, cold, wet, or windy it might be!

Date:

Astronomy

Nov. 16, 2011 Rise Set
Actual Time 6:40 AM EST 5:29 PM EST
Civil Twilight 6:15 AM EST 5:54 PM EST
Nautical Twilight 5:47 AM EST 6:22 PM EST
Astronomical Twilight 5:20 AM EST 6:49 PM EST
Moon 10:37 PM EST (11/16) 11:17 AM EST (11/16)
Length of Visible Light 11h 38m
Length of Day
10h 49m
Waning Gibbous, 70% of the Moon is Illuminated
Nov 16
Waning Gibbous
Nov 18
Last Quarter
Nov 25
New
Dec 2
First Quarter
Dec 10
Full

Hourly Weather History & Observations

Time (EST) Temp. Heat Index Dew Point Humidity Pressure Visibility Wind Dir Wind Speed Gust Speed Precip Events Conditions
12:22 AM 77.0 °F - 75.2 °F 94% 30.05 in 10.0 mi SE 8.1 mph - N/A   Mostly Cloudy
12:53 AM 77.0 °F - 73.9 °F 90% 30.05 in 10.0 mi SSE 12.7 mph - N/A   Mostly Cloudy
1:53 AM 77.0 °F - 75.0 °F 94% 30.03 in 10.0 mi SE 9.2 mph - N/A   Mostly Cloudy
2:53 AM 77.0 °F - 73.9 °F 90% 30.01 in 10.0 mi SE 11.5 mph - N/A   Mostly Cloudy
3:53 AM 77.0 °F - 73.9 °F 90% 30.01 in 10.0 mi SSE 10.4 mph - N/A   Mostly Cloudy
4:53 AM 77.0 °F - 73.0 °F 88% 30.00 in 10.0 mi SSE 12.7 mph - N/A   Mostly Cloudy
5:15 AM 77.0 °F - 73.4 °F 89% 30.00 in 10.0 mi SSE 11.5 mph - N/A   Scattered Clouds
5:53 AM 77.0 °F - 73.0 °F 88% 30.01 in 10.0 mi SSE 10.4 mph - N/A   Scattered Clouds
6:53 AM 75.9 °F - 73.0 °F 91% 30.01 in 10.0 mi SSE 10.4 mph - N/A   Scattered Clouds
7:53 AM 78.1 °F - 73.0 °F 84% 30.03 in 10.0 mi SSE 10.4 mph - N/A   Scattered Clouds
8:53 AM 79.0 °F - 73.0 °F 82% 30.05 in 10.0 mi SSE 12.7 mph - N/A   Scattered Clouds
9:53 AM 81.0 °F 85.8 °F 73.0 °F 77% 30.06 in 10.0 mi SSE 11.5 mph - N/A   Scattered Clouds
10:53 AM 82.0 °F 87.4 °F 73.0 °F 74% 30.05 in 10.0 mi South 10.4 mph - N/A   Scattered Clouds
11:53 AM 82.9 °F 87.5 °F 71.1 °F 67% 30.03 in 10.0 mi South 9.2 mph 16.1 mph N/A   Partly Cloudy
12:53 PM 82.9 °F 89.4 °F 73.9 °F 74% 30.01 in 10.0 mi ESE 10.4 mph 16.1 mph N/A   Partly Cloudy
1:53 PM 82.9 °F 89.4 °F 73.9 °F 74% 29.99 in 10.0 mi SE 11.5 mph - N/A   Partly Cloudy
2:53 PM 81.0 °F 85.8 °F 73.0 °F 77% 29.98 in 10.0 mi SE 12.7 mph - N/A   Partly Cloudy
3:53 PM 81.0 °F 85.8 °F 73.0 °F 77% 29.98 in 10.0 mi SSE 10.4 mph - N/A   Partly Cloudy
4:53 PM 79.0 °F - 73.0 °F 82% 29.98 in 10.0 mi SSE 11.5 mph - N/A   Partly Cloudy
5:53 PM 78.1 °F - 73.0 °F 84% 29.99 in 10.0 mi SE 9.2 mph - N/A   Partly Cloudy
6:53 PM 77.0 °F - 73.0 °F 88% 30.01 in 10.0 mi SE 6.9 mph - N/A   Partly Cloudy
7:53 PM 77.0 °F - 73.9 °F 90% 30.02 in 10.0 mi SE 9.2 mph - N/A   Partly Cloudy
8:53 PM 77.0 °F - 73.9 °F 90% 30.03 in 10.0 mi SE 9.2 mph - N/A   Partly Cloudy
9:53 PM 75.9 °F - 73.9 °F 94% 30.02 in 10.0 mi SE 4.6 mph - N/A   Partly Cloudy
10:53 PM 75.9 °F - 73.9 °F 94% 30.01 in 10.0 mi SE 6.9 mph - N/A   Partly Cloudy
11:53 PM 75.9 °F - 75.0 °F 97% 30.01 in 10.0 mi SSE 6.9 mph - N/A   Partly Cloudy